SCP
0 0 0 0 0 0 0 0 0 0 0 0 0 0 0 0 0 0 0 0 0 0 0 0 0 0 0 0 0 0 0 0 0 0 0 0 0 0 0 0 0 0 0
0 0 0 0 0 0 0 0 0 0 0 0 0 0 0 0 0 0 0 0 0 0 0 0 0 0 0 0 0 0 0 0 0 0 0 0 0 0 0 0 0 0 0
0 0 0 0 0 0 0 0 0 0 0 0 0 0 0 0 0 0 0 0 0 0 0 0 0 0 0 0 0 0 0 0 0 0 0 0 0 0 0 0 -0 -0 0
0 0 0 0 0 0 0 0 0 0 0 0 0 0 0 0 0 0 0 0 0 0 0 0 0 0 0 0 0 0 0 0 0 0 0 0 0 0 0 0 0 -0 0
0 0 0 0 0 0 0 0 0 0 0 0 0 0 0 0 0 0 0 0 0 0 0 0 0 0 0 0 0 0 0 0 0 0 0 0 0 0 0 0 0 -0 -0
0 0 0 0 0 0 0 0 0 0 0 0 0 0 0 0 0 0 0 0 0 0 0 0 0 0 0 0 0 0 0 0 0 0 0 0 0 0 0 0 0 0 -0
0 0 0 0 0 0 0 0 0 0 0 0 0 0 0 0 0 0 0 0 0 0 0 0 0 0 0 0 0 0 0 0 0 0 0 0 0 0 0 0 0 0 -0
0 0 0 0 0 0 0 0 0 0 0 0 0 0 0 0 0 0 0 0 0 0 0 0 0 0 0 0 0 0 0 0 0 0 0 0 0 0 0 0 0 0 0
0 0 0 0 0 0 0 0 0 0 0 0 0 0 0 0 0 0 0 0 0 0 0 0 0 0 0 0 0 0 0 0 0 0 0 0 0 0 0 0 0 0 0
0 0 0 0 0 0 0 0 0 0 0 0 0 0 0 0 0 0 0 0 0 0 0 0 0 0 0 0 -0 -0 -0 0 0 0 0 0 0 0 0 0 0 0 0
0 0 0 0 0 0 0 0 0 0 0 0 0 0 0 0 0 0 0 0 0 0 0 0 0 0 -0 -0 0 0 0 0 0 0 0 0 0 0 0 0 0 0 0
0 0 0 0 0 0 0 0 0 0 0 0 0 0 0 0 0 0 0 0 0 0 0 0 0 0 0 0 0 0 0 0 0 0 0 0 0 0 0 0 0 0 0
0 0 0 0 0 0 0 0 0 0 0 0 0 0 0 0 0 0 0 0 0 0 0 0 0 0 0 0 0 0 0 0 0 0 0 0 0 0 0 0 0 0 0
0 0 0 0 0 0 0 0 0 0 0 0 0 0 0 0 0 0 0 0 0 0 0 0 0 0 0 0 0 0 0 0 0 0 0 0 0 0 0 0 0 0 0
0 0 0 0 0 0 0 0 0 0 0 0 0 0 0 0 0 0 0 0 0 0 0 0 0 0 0 0 0 0 0 0 0 0 0 0 0 0 0 0 0 0 0
0 0 0 0 0 0 0 0 0 0 0 0 0 0 0 0 0 0 0 -0 -0 -0 0 0 0 0 0 0 0 0 0 0 0 0 0 0 0 0 0 0 0 0 0
0 0 0 0 0 0 0 0 0 0 0 0 0 0 0 0 0 0 0 0 0 0 0 0 0 0 0 0 0 0 0 0 0 0 0 0 0 0 0 0 0 0 0
0 0 0 0 0 0 0 0 0 0 0 0 0 0 0 0 0 0 0 0 0 0 0 0 0 0 0 0 0 0 0 0 0 0 0 0 0 0 0 0 0 0 0
0 0 0 0 0 0 0 0 0 0 0 0 0 0 0 0 0 0 0 0 0 0 0 0 0 0 0 0 0 0 0 0 0 0 0 0 0 0 0 0 0 0 0
0 0 0 0 0 0 0 0 0 0 0 0 0 0 0 0 0 0 0 0 0 0 0 0 0 0 0 0 0 0 0 0 0 0 0 0 0 0 0 0 0 0 0
0 0 0 0 0 0 0 0 0 0 0 0 0 0 0 0 0 0 0 0 0 0 0 0 0 0 0 0 0 0 0 0 -0 0 0 0 0 0 -0 0 0 0 0
0 0 0 0 0 0 0 0 0 0 0 0 0 0 0 0 0 0 0 0 0 0 0 0 0 0 0 0 0 0 -0 -0 -0 0 0 -0 -0 -0 -0 -0 0 0 -0
0 0 0 0 0 0 0 0 0 0 0 0 0 0 0 0 0 0 0 0 0 0 0 0 0 0 0 0 0 -0 -0 -0 0 -0 -0 -0 0 -0 0 -0 -0 -0 0
0 0 0 0 0 0 0 0 0 0 0 0 0 0 0 0 0 0 0 0 0 0 0 0 0 0 0 0 0 -0 -0 0 -0 -0 -0 -0 -0 0 0 0 0 0 0
0 0 0 0 0 0 0 0 0 0 0 0 0 0 0 0 0 0 0 0 0 0 0 0 0 0 -0 -0 -0 -0 -0 -0 -0 -0 -0 0 -0 0 0 0 0 0 0
0 0 0 0 0 0 0 0 0 0 0 0 0 0 0 0 0 0 0 0 0 0 0 0 0 -0 0 -0 -0 -0 -0 -0 -0 -0 -0 0 0 0 0 0 0 0 0
Wind_Speed_500mb
12 22 42 41 39 34 24 16 16 17 20 21 23 30 38 43 47 45 44 44 46 52 54 54 53 52 51 51 50 46 47 47 42 40 44 43 44 42 41 44 46 44 41
16 9 9 16 18 11 13 14 17 22 23 23 25 32 39 46 54 56 57 57 57 55 58 63 65 65 63 61 60 60 57 53 47 42 40 32 40 50 50 55 58 60 54
26 23 18 12 11 10 10 16 23 27 27 29 33 34 40 48 55 60 64 63 69 70 67 69 72 77 75 75 71 66 62 59 55 51 39 19 20 42 58 60 71 68 66
22 18 13 11 18 21 21 24 28 30 30 33 36 43 51 62 63 66 70 72 72 78 79 79 79 82 82 79 72 64 64 63 60 53 45 34 29 18 37 58 69 71 74
11 11 15 18 16 14 21 24 28 27 30 28 33 47 60 63 68 71 76 77 79 81 84 82 83 85 83 73 68 70 67 65 57 45 36 36 34 38 42 57 76 82 75
10 14 11 13 19 23 24 25 23 19 21 39 51 62 63 72 83 86 87 74 72 68 68 72 81 85 82 72 69 64 56 51 49 44 48 44 35 40 49 60 71 73 79
25 21 21 23 20 17 13 14 20 27 39 50 54 71 74 84 85 76 65 67 69 72 76 69 77 80 76 78 75 61 49 43 48 49 44 48 55 40 52 59 69 70 75
18 13 4 4 4 8 18 26 36 46 55 66 74 74 68 65 65 64 64 63 63 63 59 47 57 62 59 49 40 39 43 55 50 57 42 41 44 49 49 53 58 73 65
22 15 8 8 12 22 34 45 54 61 67 62 59 58 59 62 63 60 61 62 57 51 46 45 49 43 35 36 40 50 42 39 30 34 43 46 50 54 54 56 59 58 67
18 17 15 19 31 47 47 55 56 58 59 59 58 64 73 66 51 51 55 53 48 42 46 49 41 41 42 52 41 32 21 32 39 45 51 56 59 62 64 64 63 63 70
19 30 41 44 55 57 55 53 56 60 59 55 60 71 74 58 54 53 53 52 35 36 29 31 44 45 16 17 23 29 35 42 49 54 60 65 65 67 66 64 62 63 65
38 50 48 53 56 60 58 63 59 66 63 60 67 81 73 57 55 43 33 30 25 32 41 39 21 17 20 27 35 40 49 53 56 62 62 65 68 69 68 66 68 69 70
52 61 51 54 54 62 57 61 63 69 63 69 81 85 73 49 36 31 28 28 23 18 22 20 21 23 29 37 44 49 55 61 62 64 67 68 64 67 67 67 70 71 77
54 52 51 61 62 61 63 64 66 66 73 80 80 71 53 42 32 29 21 14 15 18 17 30 29 36 44 46 53 59 63 67 67 66 67 68 71 78 82 86 91 93 92
52 44 56 67 64 61 68 71 66 66 76 76 71 47 39 32 27 33 29 26 22 32 29 36 39 46 52 57 61 63 59 60 66 72 78 82 82 80 74 70 72 69 72
52 53 63 63 69 65 68 67 62 71 69 55 41 31 31 28 17 21 33 35 19 21 31 38 47 54 58 60 55 57 63 69 73 75 77 78 70 67 63 62 62 63 65
48 56 68 75 70 67 67 59 64 62 39 28 26 21 16 16 17 21 24 24 27 31 37 44 53 59 58 59 61 60 63 70 72 72 71 66 64 66 70 70 68 67 69
54 62 68 72 74 70 62 65 60 49 35 30 26 26 24 21 20 25 34 33 35 40 48 54 56 59 59 58 62 66 66 66 65 60 58 61 63 61 60 60 68 69 68
57 63 63 67 66 70 69 62 50 37 25 17 13 14 22 31 33 38 36 41 45 49 51 54 56 56 61 63 59 55 55 59 58 55 51 56 57 55 54 56 61 65 67
45 58 66 68 71 69 43 39 39 14 20 17 21 28 31 32 37 42 46 45 46 51 52 51 53 58 60 50 50 48 52 56 54 54 55 55 57 58 53 55 61 69 69
67 73 71 59 43 40 35 43 15 18 15 26 32 29 34 41 45 46 45 48 50 48 49 55 57 53 47 47 46 49 41 46 53 54 54 58 59 59 55 58 67 65 60
67 61 55 46 40 33 27 35 21 25 19 35 32 38 43 46 45 46 47 45 46 50 53 54 54 53 45 44 53 40 39 43 45 48 47 54 58 58 59 52 48 48 51
56 54 52 47 46 35 27 22 18 26 37 31 42 46 48 45 44 42 42 45 46 48 50 52 58 57 53 56 49 42 43 46 38 40 46 52 54 44 38 36 34 33 31
55 48 40 29 18 13 15 22 30 35 39 39 47 48 48 42 38 39 42 42 42 47 49 52 57 55 60 59 48 52 56 41 40 45 44 42 33 28 29 28 24 21 21
41 39 35 34 32 31 30 32 30 28 37 40 42 45 42 38 37 41 42 40 40 42 48 49 47 54 61 52 50 54 48 39 40 40 35 38 32 30 30 30 30 26 23
40 36 30 30 36 39 40 34 34 36 37 41 44 43 40 37 38 44 46 37 39 42 41 41 40 47 43 43 49 46 37 34 33 30 31 36 34 35 36 37 35 35 32
Wind_Direction_500mb
228 245 241 234 222 219 228 262 306 322 321 317 331 330 323 312 303 300 297 294 291 288 286 283 282 277 273 278 273 269 268 269 273 277 282 290 297 294 294 294 304 310 314
117 111 116 180 192 231 250 281 302 300 312 308 320 337 337 324 308 301 294 289 284 282 283 275 272 271 268 267 266 265 264 264 264 265 278 292 287 291 291 297 302 307 309
118 116 121 153 199 246 272 290 298 291 290 292 293 306 311 310 312 306 299 298 292 284 276 271 267 266 264 261 262 257 253 254 256 256 256 263 263 282 295 294 298 300 304
143 146 166 222 246 252 272 289 289 290 296 294 300 304 300 295 294 296 297 299 296 287 279 271 265 263 258 255 252 244 240 241 242 241 240 241 260 292 300 293 297 298 299
159 193 230 239 248 265 285 276 275 276 279 292 302 309 302 297 303 303 302 299 296 288 278 271 269 258 250 247 241 235 231 231 227 226 230 247 261 285 298 301 297 294 298
273 269 261 256 269 263 252 255 262 271 296 309 302 302 300 303 305 306 305 302 300 298 291 280 260 247 242 236 231 221 217 221 224 231 242 256 286 297 302 300 299 297 299
263 258 246 260 249 250 258 289 299 299 306 302 296 298 298 301 300 302 303 300 298 295 290 282 251 238 232 234 215 209 220 237 242 251 260 269 276 293 288 293 294 297 298
270 245 284 191 187 303 313 315 315 311 305 305 304 303 306 307 304 306 308 306 301 294 283 253 221 211 203 203 220 238 258 270 271 283 303 295 289 284 288 290 295 297 294
68 64 47 12 342 329 323 315 311 312 314 317 322 321 319 316 313 311 309 306 304 291 246 213 199 201 217 243 284 311 306 301 303 291 289 289 288 289 288 286 288 289 290
53 45 25 349 332 327 325 324 320 320 323 322 324 321 319 322 314 306 303 302 296 272 232 219 223 248 272 298 309 316 308 291 286 290 292 292 293 292 291 289 285 283 285
1 350 340 333 329 329 323 326 324 324 326 322 322 321 328 322 313 301 296 293 264 223 227 256 266 308 320 301 301 294 293 294 294 292 294 294 293 291 290 289 285 282 282
328 329 324 329 329 330 327 332 332 329 327 322 323 326 329 316 299 282 274 257 243 259 265 278 294 297 307 301 295 294 296 296 296 296 294 293 294 291 289 288 286 285 283
325 322 312 321 326 332 330 334 331 333 329 324 324 323 324 306 270 259 245 243 255 272 281 294 313 308 297 294 294 296 298 298 298 297 296 295 292 288 286 283 282 281 281
320 313 306 324 327 329 329 330 330 326 325 323 322 324 317 290 256 245 234 228 240 253 268 300 300 293 302 301 299 300 300 299 297 295 292 288 285 285 286 284 282 282 281
321 317 321 327 326 323 327 324 323 320 321 323 323 315 298 267 227 216 228 233 274 322 327 299 293 298 300 301 300 300 299 297 295 292 291 291 291 291 288 286 285 282 278
325 326 326 326 325 320 318 317 314 317 318 324 326 319 298 291 302 305 338 353 336 282 283 285 291 298 302 305 306 303 300 298 297 297 297 296 295 291 287 283 279 275 275
330 331 328 324 321 316 315 313 315 319 313 325 328 334 315 331 326 313 303 297 293 287 291 301 304 306 308 308 307 305 302 300 299 299 300 300 296 296 294 292 288 280 274
329 328 325 318 313 312 311 312 318 315 295 302 302 303 309 317 322 311 307 299 302 305 306 307 309 309 311 311 308 307 303 301 300 302 301 302 302 301 300 294 289 289 287
327 312 313 314 308 309 312 317 322 306 313 307 336 322 317 313 299 299 305 306 306 307 310 312 312 313 313 314 313 310 307 304 303 305 307 307 305 306 303 294 290 288 285
319 319 314 309 307 314 313 309 308 351 335 342 331 314 312 306 308 311 311 311 312 313 313 313 313 315 317 318 316 313 307 309 310 311 314 317 315 311 303 298 296 294 293
322 322 324 329 338 334 311 311 309 313 327 321 312 313 316 317 315 313 313 312 314 314 314 314 319 323 323 320 322 317 313 311 313 315 319 320 317 311 302 294 288 286 288
327 331 331 333 333 328 323 320 306 312 305 320 316 319 320 320 315 313 314 316 316 316 318 320 321 326 325 327 329 326 323 317 314 319 318 317 320 312 309 304 297 288 285
327 329 332 328 322 306 320 337 307 314 321 311 315 318 321 321 318 318 320 319 319 322 325 324 326 328 330 331 330 323 325 326 321 314 316 314 322 320 320 317 309 302 297
325 329 332 340 358 354 334 323 338 316 303 308 315 320 322 322 319 323 327 325 325 326 326 326 327 325 324 330 334 329 328 328 318 319 321 330 333 340 354 1 360 351 341
322 324 325 329 331 337 326 315 307 302 309 317 322 323 323 322 319 324 332 328 325 325 325 326 322 318 322 332 324 323 328 320 319 321 328 342 350 359 5 16 13 6 358
317 321 320 314 311 310 311 311 310 314 321 326 329 325 322 319 320 327 330 330 329 327 326 325 316 319 324 322 324 326 326 318 325 330 350 358 4 6 10 9 13 16 11
Wind_Speed_850mb
12 22 42 41 39 34 24 16 16 17 20 21 23 30 38 43 47 45 44 44 46 52 54 54 53 52 51 51 50 46 47 47 42 40 44 43 44 42 41 44 46 44 41
16 9 9 16 18 11 13 14 17 22 23 23 25 32 39 46 54 56 57 57 57 55 58 63 65 65 63 61 60 60 57 53 47 42 40 32 40 50 50 55 58 60 54
26 23 18 12 11 10 10 16 23 27 27 29 33 34 40 48 55 60 64 63 69 70 67 69 72 77 75 75 71 66 62 59 55 51 39 19 20 42 58 60 71 68 66
22 18 13 11 18 21 21 24 28 30 30 33 36 43 51 62 63 66 70 72 72 78 79 79 79 82 82 79 72 64 64 63 60 53 45 34 29 18 37 58 69 71 74
11 11 15 18 16 14 21 24 28 27 30 28 33 47 60 63 68 71 76 77 79 81 84 82 83 85 83 73 68 70 67 65 57 45 36 36 34 38 42 57 76 82 75
10 14 11 13 19 23 24 25 23 19 21 39 51 62 63 72 83 86 87 74 72 68 68 72 81 85 82 72 69 64 56 51 49 44 48 44 35 40 49 60 71 73 79
25 21 21 23 20 17 13 14 20 27 39 50 54 71 74 84 85 76 65 67 69 72 76 69 77 80 76 78 75 61 49 43 48 49 44 48 55 40 52 59 69 70 75
18 13 4 4 4 8 18 26 36 46 55 66 74 74 68 65 65 64 64 63 63 63 59 47 57 62 59 49 40 39 43 55 50 57 42 41 44 49 49 53 58 73 65
22 15 8 8 12 22 34 45 54 61 67 62 59 58 59 62 63 60 61 62 57 51 46 45 49 43 35 36 40 50 42 39 30 34 43 46 50 54 54 56 59 58 67
18 17 15 19 31 47 47 55 56 58 59 59 58 64 73 66 51 51 55 53 48 42 46 49 41 41 42 52 41 32 21 32 39 45 51 56 59 62 64 64 63 63 70
19 30 41 44 55 57 55 53 56 60 59 55 60 71 74 58 54 53 53 52 35 36 29 31 44 45 16 17 23 29 35 42 49 54 60 65 65 67 66 64 62 63 65
38 50 48 53 56 60 58 63 59 66 63 60 67 81 73 57 55 43 33 30 25 32 41 39 21 17 20 27 35 40 49 53 56 62 62 65 68 69 68 66 68 69 70
52 61 51 54 54 62 57 61 63 69 63 69 81 85 73 49 36 31 28 28 23 18 22 20 21 23 29 37 44 49 55 61 62 64 67 68 64 67 67 67 70 71 77
54 52 51 61 62 61 63 64 66 66 73 80 80 71 53 42 32 29 21 14 15 18 17 30 29 36 44 46 53 59 63 67 67 66 67 68 71 78 82 86 91 93 92
52 44 56 67 64 61 68 71 66 66 76 76 71 47 39 32 27 33 29 26 22 32 29 36 39 46 52 57 61 63 59 60 66 72 78 82 82 80 74 70 72 69 72
52 53 63 63 69 65 68 67 62 71 69 55 41 31 31 28 17 21 33 35 19 21 31 38 47 54 58 60 55 57 63 69 73 75 77 78 70 67 63 62 62 63 65
48 56 68 75 70 67 67 59 64 62 39 28 26 21 16 16 17 21 24 24 27 31 37 44 53 59 58 59 61 60 63 70 72 72 71 66 64 66 70 70 68 67 69
54 62 68 72 74 70 62 65 60 49 35 30 26 26 24 21 20 25 34 33 35 40 48 54 56 59 59 58 62 66 66 66 65 60 58 61 63 61 60 60 68 69 68
57 63 63 67 66 70 69 62 50 37 25 17 13 14 22 31 33 38 36 41 45 49 51 54 56 56 61 63 59 55 55 59 58 55 51 56 57 55 54 56 61 65 67
45 58 66 68 71 69 43 39 39 14 20 17 21 28 31 32 37 42 46 45 46 51 52 51 53 58 60 50 50 48 52 56 54 54 55 55 57 58 53 55 61 69 69
67 73 71 59 43 40 35 43 15 18 15 26 32 29 34 41 45 46 45 48 50 48 49 55 57 53 47 47 46 49 41 46 53 54 54 58 59 59 55 58 67 65 60
67 61 55 46 40 33 27 35 21 25 19 35 32 38 43 46 45 46 47 45 46 50 53 54 54 53 45 44 53 40 39 43 45 48 47 54 58 58 59 52 48 48 51
56 54 52 47 46 35 27 22 18 26 37 31 42 46 48 45 44 42 42 45 46 48 50 52 58 57 53 56 49 42 43 46 38 40 46 52 54 44 38 36 34 33 31
55 48 40 29 18 13 15 22 30 35 39 39 47 48 48 42 38 39 42 42 42 47 49 52 57 55 60 59 48 52 56 41 40 45 44 42 33 28 29 28 24 21 21
41 39 35 34 32 31 30 32 30 28 37 40 42 45 42 38 37 41 42 40 40 42 48 49 47 54 61 52 50 54 48 39 40 40 35 38 32 30 30 30 30 26 23
40 36 30 30 36 39 40 34 34 36 37 41 44 43 40 37 38 44 46 37 39 42 41 41 40 47 43 43 49 46 37 34 33 30 31 36 34 35 36 37 35 35 32
Wind_Direction_850mb
228 245 241 234 222 219 228 262 306 322 321 317 331 330 323 312 303 300 297 294 291 288 286 283 282 277 273 278 273 269 268 269 273 277 282 290 297 294 294 294 304 310 314
117 111 116 180 192 231 250 281 302 300 312 308 320 337 337 324 308 301 294 289 284 282 283 275 272 271 268 267 266 265 264 264 264 265 278 292 287 291 291 297 302 307 309
118 116 121 153 199 246 272 290 298 291 290 292 293 306 311 310 312 306 299 298 292 284 276 271 267 266 264 261 262 257 253 254 256 256 256 263 263 282 295 294 298 300 304
143 146 166 222 246 252 272 289 289 290 296 294 300 304 300 295 294 296 297 299 296 287 279 271 265 263 258 255 252 244 240 241 242 241 240 241 260 292 300 293 297 298 299
159 193 230 239 248 265 285 276 275 276 279 292 302 309 302 297 303 303 302 299 296 288 278 271 269 258 250 247 241 235 231 231 227 226 230 247 261 285 298 301 297 294 298
273 269 261 256 269 263 252 255 262 271 296 309 302 302 300 303 305 306 305 302 300 298 291 280 260 247 242 236 231 221 217 221 224 231 242 256 286 297 302 300 299 297 299
263 258 246 260 249 250 258 289 299 299 306 302 296 298 298 301 300 302 303 300 298 295 290 282 251 238 232 234 215 209 220 237 242 251 260 269 276 293 288 293 294 297 298
270 245 284 191 187 303 313 315 315 311 305 305 304 303 306 307 304 306 308 306 301 294 283 253 221 211 203 203 220 238 258 270 271 283 303 295 289 284 288 290 295 297 294
68 64 47 12 342 329 323 315 311 312 314 317 322 321 319 316 313 311 309 306 304 291 246 213 199 201 217 243 284 311 306 301 303 291 289 289 288 289 288 286 288 289 290
53 45 25 349 332 327 325 324 320 320 323 322 324 321 319 322 314 306 303 302 296 272 232 219 223 248 272 298 309 316 308 291 286 290 292 292 293 292 291 289 285 283 285
1 350 340 333 329 329 323 326 324 324 326 322 322 321 328 322 313 301 296 293 264 223 227 256 266 308 320 301 301 294 293 294 294 292 294 294 293 291 290 289 285 282 282
328 329 324 329 329 330 327 332 332 329 327 322 323 326 329 316 299 282 274 257 243 259 265 278 294 297 307 301 295 294 296 296 296 296 294 293 294 291 289 288 286 285 283
325 322 312 321 326 332 330 334 331 333 329 324 324 323 324 306 270 259 245 243 255 272 281 294 313 308 297 294 294 296 298 298 298 297 296 295 292 288 286 283 282 281 281
320 313 306 324 327 329 329 330 330 326 325 323 322 324 317 290 256 245 234 228 240 253 268 300 300 293 302 301 299 300 300 299 297 295 292 288 285 285 286 284 282 282 281
321 317 321 327 326 323 327 324 323 320 321 323 323 315 298 267 227 216 228 233 274 322 327 299 293 298 300 301 300 300 299 297 295 292 291 291 291 291 288 286 285 282 278
325 326 326 326 325 320 318 317 314 317 318 324 326 319 298 291 302 305 338 353 336 282 283 285 291 298 302 305 306 303 300 298 297 297 297 296 295 291 287 283 279 275 275
330 331 328 324 321 316 315 313 315 319 313 325 328 334 315 331 326 313 303 297 293 287 291 301 304 306 308 308 307 305 302 300 299 299 300 300 296 296 294 292 288 280 274
329 328 325 318 313 312 311 312 318 315 295 302 302 303 309 317 322 311 307 299 302 305 306 307 309 309 311 311 308 307 303 301 300 302 301 302 302 301 300 294 289 289 287
327 312 313 314 308 309 312 317 322 306 313 307 336 322 317 313 299 299 305 306 306 307 310 312 312 313 313 314 313 310 307 304 303 305 307 307 305 306 303 294 290 288 285
319 319 314 309 307 314 313 309 308 351 335 342 331 314 312 306 308 311 311 311 312 313 313 313 313 315 317 318 316 313 307 309 310 311 314 317 315 311 303 298 296 294 293
322 322 324 329 338 334 311 311 309 313 327 321 312 313 316 317 315 313 313 312 314 314 314 314 319 323 323 320 322 317 313 311 313 315 319 320 317 311 302 294 288 286 288
327 331 331 333 333 328 323 320 306 312 305 320 316 319 320 320 315 313 314 316 316 316 318 320 321 326 325 327 329 326 323 317 314 319 318 317 320 312 309 304 297 288 285
327 329 332 328 322 306 320 337 307 314 321 311 315 318 321 321 318 318 320 319 319 322 325 324 326 328 330 331 330 323 325 326 321 314 316 314 322 320 320 317 309 302 297
325 329 332 340 358 354 334 323 338 316 303 308 315 320 322 322 319 323 327 325 325 326 326 326 327 325 324 330 334 329 328 328 318 319 321 330 333 340 354 1 360 351 341
322 324 325 329 331 337 326 315 307 302 309 317 322 323 323 322 319 324 332 328 325 325 325 326 322 318 322 332 324 323 328 320 319 321 328 342 350 359 5 16 13 6 358
317 321 320 314 311 310 311 311 310 314 321 326 329 325 322 319 320 327 330 330 329 327 326 325 316 319 324 322 324 326 326 318 325 330 350 358 4 6 10 9 13 16 11